| time (UTC) | temp F | wind direction | speed knots | gust knots | rain 1hr in | rain 24hr in | rain mn in | humidity % | barometer mb |
| 20260906083033 | 72 | 41 | 0.0 | 0.0 | 0.00 | 0.00 | 0.00 | 97 | 1005.2 |
| 20260906082528 | 73 | 41 | 0.0 | 0.0 | 0.00 | 0.00 | 0.00 | 97 | 1005.1 |
| 20260906082024 | 73 | 41 | 0.0 | 0.0 | 0.00 | 0.00 | 0.00 | 97 | 1005.4 |
| 20260906081520 | 73 | 41 | 0.0 | 0.0 | 0.00 | 0.00 | 0.00 | 97 | 1005.3 |
| 20260906081015 | 73 | 41 | 0.0 | 0.0 | 0.00 | 0.00 | 0.00 | 97 | 1005.4 |
| 20260906080512 | 73 | 41 | 0.0 | 0.0 | 0.00 | 0.00 | 0.00 | 97 | 1005.2 |
| 20260906080008 | 72 | 41 | 0.0 | 0.0 | 0.00 | 0.00 | 0.00 | 97 | 1005.4 |
| 20260906075502 | 72 | 41 | 0.0 | 0.0 | 0.00 | 0.00 | 0.00 | 97 | 1005.4 |
| 20260906074956 | 72 | 41 | 0.0 | 0.0 | 0.00 | 0.00 | 0.00 | 97 | 1005.2 |
| 20260906074451 | 72 | 41 | 0.0 | 0.0 | 0.00 | 0.00 | 0.00 | 97 | 1005.1 |
| 20260906073949 | 72 | 41 | 0.0 | 0.0 | 0.00 | 0.00 | 0.00 | 97 | 1005.1 |
| 20260906073444 | 72 | 41 | 0.0 | 0.0 | 0.00 | 0.00 | 0.00 | 97 | 1005.2 |
| 20260906072941 | 73 | 42 | 0.0 | 0.0 | 0.00 | 0.00 | 0.00 | 97 | 1004.9 |
| 20260906072436 | 73 | 37 | 0.0 | 0.0 | 0.00 | 0.00 | 0.00 | 97 | 1004.8 |
| 20260906071932 | 72 | 37 | 0.0 | 0.0 | 0.00 | 0.00 | 0.00 | 97 | 1004.8 |
| 20260906071427 | 72 | 37 | 0.0 | 0.0 | 0.00 | 0.00 | 0.00 | 97 | 1005.0 |
| 20260906070923 | 72 | 37 | 0.0 | 0.0 | 0.00 | 0.00 | 0.00 | 97 | 1005.1 |
| 20260906070419 | 72 | 37 | 0.0 | 0.0 | 0.00 | 0.00 | 0.00 | 97 | 1005.0 |
| 20260906065915 | 72 | 37 | 0.0 | 0.0 | 0.00 | 0.00 | 0.00 | 97 | 1005.2 |
| 20260906065409 | 72 | 37 | 0.0 | 0.0 | 0.00 | 0.00 | 0.00 | 97 | 1005.2 |
| 20260906064905 | 72 | 37 | 0.0 | 0.0 | 0.00 | 0.00 | 0.00 | 97 | 1005.2 |
| 20260906064401 | 72 | 30 | 0.0 | 0.9 | 0.00 | 0.00 | 0.00 | 97 | 1005.1 |
| 20260906063901 | 73 | 41 | 0.0 | 0.0 | 0.00 | 0.00 | 0.00 | 97 | 1005.4 |
| 20260906063356 | 73 | 37 | 0.0 | 0.0 | 0.00 | 0.00 | 0.00 | 97 | 1005.4 |
| 20260906062851 | 74 | 12 | 0.9 | 1.7 | 0.00 | 0.00 | 0.00 | 97 | 1005.5 |
| 20260906062350 | 73 | 29 | 0.0 | 0.0 | 0.00 | 0.00 | 0.00 | 97 | 1005.3 |
| 20260906061846 | 73 | 26 | 0.9 | 1.7 | 0.00 | 0.00 | 0.00 | 97 | 1005.4 |
| 20260906061342 | 72 | 329 | 1.7 | 2.6 | 0.00 | 0.00 | 0.00 | 97 | 1005.5 |
| 20260906060836 | 72 | 23 | 0.0 | 0.0 | 0.00 | 0.00 | 0.00 | 97 | 1005.6 |
| 20260906060334 | 73 | 23 | 0.0 | 0.0 | 0.00 | 0.00 | 0.00 | 97 | 1005.7 |
| 20260906055830 | 73 | 23 | 0.0 | 0.0 | 0.00 | 0.00 | 0.00 | 97 | 1005.9 |
| 20260906055325 | 73 | 22 | 0.0 | 0.0 | 0.00 | 0.00 | 0.00 | 97 | 1005.9 |
| 20260906054821 | 73 | 22 | 0.0 | 0.0 | 0.00 | 0.00 | 0.00 | 97 | 1006.1 |
| 20260906054315 | 73 | 22 | 0.0 | 0.0 | 0.00 | 0.00 | 0.00 | 97 | 1006.2 |
| 20260906053812 | 73 | 22 | 0.0 | 0.0 | 0.00 | 0.00 | 0.00 | 97 | 1006.0 |
| 20260906053307 | 73 | 22 | 0.0 | 0.9 | 0.00 | 0.00 | 0.00 | 97 | 1006.1 |
| 20260906052802 | 74 | 29 | 0.0 | 0.0 | 0.00 | 0.00 | 0.00 | 97 | 1006.2 |
| 20260906052259 | 73 | 28 | 0.0 | 0.0 | 0.00 | 0.00 | 0.00 | 97 | 1006.2 |
| 20260906051755 | 74 | 30 | 0.0 | 0.9 | 0.00 | 0.00 | 0.00 | 97 | 1006.2 |
| 20260906051255 | 74 | 28 | 0.9 | 0.9 | 0.00 | 0.00 | 0.00 | 97 | 1006.1 |
| 20260906050750 | 74 | 29 | 0.0 | 0.0 | 0.00 | 0.00 | 0.00 | 97 | 1006.2 |
| 20260906050245 | 74 | 26 | 0.9 | 0.9 | 0.00 | 0.00 | 0.00 | 97 | 1006.1 |
| 20260906045744 | 74 | 18 | 1.7 | 1.7 | 0.00 | 0.00 | 0.00 | 97 | 1006.1 |
| 20260906045239 | 73 | 25 | 0.0 | 0.9 | 0.00 | 0.00 | 0.00 | 97 | 1006.1 |
| 20260906044735 | 72 | 41 | 0.0 | 0.0 | 0.00 | 0.00 | 0.00 | 97 | 1006.1 |
| 20260906044230 | 72 | 41 | 0.0 | 0.0 | 0.00 | 0.00 | 0.00 | 97 | 1006.2 |
| 20260906043726 | 72 | 41 | 0.0 | 0.0 | 0.00 | 0.00 | 0.00 | 97 | 1006.4 |
| 20260906043222 | 72 | 41 | 0.0 | 0.0 | 0.00 | 0.00 | 0.00 | 97 | 1006.5 |
| 20260906042721 | 72 | 41 | 0.0 | 0.0 | 0.00 | 0.00 | 0.00 | 97 | 1006.5 |
| 20260906042220 | 72 | 41 | 0.0 | 0.0 | 0.00 | 0.00 | 0.00 | 97 | 1006.6 |
| 20260906041716 | 72 | 41 | 0.0 | 0.0 | 0.00 | 0.00 | 0.00 | 97 | 1006.5 |
| 20260906041211 | 72 | 41 | 0.0 | 0.0 | 0.00 | 0.00 | 0.00 | 97 | 1006.6 |
| 20260906040707 | 72 | 42 | 0.0 | 0.0 | 0.00 | 0.00 | 0.00 | 97 | 1006.5 |
| 20260906040201 | 72 | 41 | 0.0 | 0.0 | 0.00 | 0.00 | 0.00 | 97 | 1006.6 |
| 20260906035657 | 72 | 41 | 0.0 | 0.0 | 0.00 | 1.02 | 1.02 | 97 | 1006.7 |
| 20260906035153 | 72 | 41 | 0.0 | 0.0 | 0.00 | 1.02 | 1.02 | 97 | 1006.7 |
| 20260906034647 | 72 | 40 | 0.0 | 0.0 | 0.00 | 1.02 | 1.02 | 97 | 1006.7 |
| 20260906034142 | 72 | 40 | 0.0 | 0.0 | 0.00 | 1.02 | 1.02 | 97 | 1006.7 |
| 20260906033638 | 72 | 30 | 0.0 | 0.0 | 0.00 | 1.02 | 1.02 | 97 | 1006.6 |
| 20260906033138 | 73 | 30 | 0.0 | 0.0 | 0.00 | 1.02 | 1.02 | 97 | 1006.6 |
| 20260906032635 | 72 | 30 | 0.0 | 0.0 | 0.00 | 1.02 | 1.02 | 97 | 1006.9 |
| 20260906032134 | 72 | 42 | 0.0 | 0.9 | 0.00 | 1.02 | 1.02 | 97 | 1006.5 |
| 20260906031630 | 72 | 41 | 0.0 | 0.0 | 0.00 | 1.02 | 1.02 | 97 | 1006.5 |
| 20260906031125 | 72 | 41 | 0.0 | 0.0 | 0.00 | 1.02 | 1.02 | 97 | 1006.6 |
| 20260906030624 | 73 | 30 | 0.0 | 0.9 | 0.00 | 1.02 | 1.02 | 97 | 1006.7 |
| 20260906030120 | 73 | 36 | 0.0 | 0.0 | 0.00 | 1.02 | 1.02 | 97 | 1006.6 |
| 20260906025619 | 73 | 37 | 0.0 | 0.0 | 0.00 | 1.02 | 1.02 | 97 | 1006.8 |
| 20260906025118 | 73 | 13 | 1.7 | 1.7 | 0.00 | 1.02 | 1.02 | 97 | 1006.5 |
| 20260906024613 | 73 | 351 | 1.7 | 2.6 | 0.00 | 1.02 | 1.02 | 97 | 1006.7 |
| 20260906024107 | 73 | 48 | 0.9 | 1.7 | 0.00 | 1.02 | 1.02 | 97 | 1006.7 |
| 20260906023603 | 73 | 42 | 0.0 | 0.0 | 0.00 | 1.02 | 1.02 | 97 | 1006.4 |
| 20260906023057 | 73 | 42 | 0.0 | 0.0 | 0.00 | 1.02 | 1.02 | 96 | 1006.5 |
| 20260906022553 | 73 | 42 | 0.0 | 0.0 | 0.00 | 1.02 | 1.02 | 96 | 1006.6 |
| 20260906022048 | 73 | 42 | 0.0 | 0.0 | 0.00 | 1.02 | 1.02 | 96 | 1006.7 |
| 20260906021544 | 73 | 42 | 0.0 | 0.0 | 0.00 | 1.02 | 1.02 | 96 | 1006.3 |
| 20260906021042 | 73 | 42 | 0.0 | 0.0 | 0.00 | 1.02 | 1.02 | 96 | 1006.3 |
| 20260906020537 | 74 | 42 | 0.0 | 0.0 | 0.00 | 1.02 | 1.02 | 96 | 1006.3 |
| 20260906020036 | 73 | 40 | 0.0 | 0.0 | 0.00 | 1.02 | 1.02 | 96 | 1006.0 |
| 20260906015536 | 73 | 40 | 0.0 | 0.0 | 0.00 | 1.02 | 1.02 | 96 | 1006.1 |
| 20260906015036 | 73 | 40 | 0.0 | 0.0 | 0.00 | 1.02 | 1.02 | 96 | 1006.0 |
| 20260906014531 | 73 | 41 | 0.0 | 0.9 | 0.00 | 1.02 | 1.02 | 96 | 1006.1 |
| 20260906014026 | 73 | 39 | 0.0 | 0.0 | 0.00 | 1.02 | 1.02 | 96 | 1006.0 |
| 20260906013522 | 73 | 39 | 0.0 | 0.0 | 0.00 | 1.02 | 1.02 | 96 | 1005.9 |
| 20260906013017 | 73 | 39 | 0.0 | 0.0 | 0.00 | 1.02 | 1.02 | 96 | 1005.7 |
| 20260906012512 | 73 | 39 | 0.0 | 0.0 | 0.00 | 1.02 | 1.02 | 95 | 1005.7 |
| 20260906012012 | 73 | 39 | 0.0 | 0.0 | 0.00 | 1.02 | 1.02 | 95 | 1005.6 |
| 20260906011508 | 73 | 39 | 0.0 | 0.9 | 0.00 | 1.02 | 1.02 | 95 | 1005.8 |
| 20260906011002 | 73 | 39 | 0.0 | 0.0 | 0.00 | 1.02 | 1.02 | 95 | 1005.6 |
| 20260906010457 | 73 | 39 | 0.0 | 0.0 | 0.00 | 1.02 | 1.02 | 95 | 1005.4 |
| 20260906005954 | 73 | 39 | 0.0 | 0.0 | 0.00 | 1.02 | 1.02 | 95 | 1005.6 |
| 20260906005453 | 73 | 39 | 0.0 | 0.0 | 0.00 | 1.02 | 1.02 | 95 | 1005.4 |
| 20260906004951 | 73 | 39 | 0.0 | 0.0 | 0.00 | 1.02 | 1.02 | 95 | 1005.4 |
| 20260906004446 | 73 | 39 | 0.0 | 0.0 | 0.00 | 1.02 | 1.02 | 95 | 1005.4 |
| 20260906003941 | 73 | 39 | 0.0 | 0.0 | 0.00 | 1.02 | 1.02 | 95 | 1005.5 |
| 20260906003442 | 72 | 39 | 0.0 | 0.0 | 0.00 | 1.02 | 1.02 | 95 | 1005.6 |
| 20260906002937 | 72 | 39 | 0.0 | 0.0 | 0.00 | 1.02 | 1.02 | 94 | 1005.6 |
| 20260906002437 | 72 | 39 | 0.0 | 0.0 | 0.00 | 1.02 | 1.02 | 94 | 1005.5 |
| 20260906001932 | 71 | 39 | 0.0 | 0.0 | 0.00 | 1.02 | 1.02 | 94 | 1005.7 |
| 20260906001428 | 71 | 39 | 0.0 | 0.0 | 0.00 | 1.02 | 1.02 | 94 | 1005.8 |
| 20260906000923 | 71 | 39 | 0.0 | 0.0 | 0.00 | 1.02 | 1.02 | 94 | 1005.8 |
| 20260906000418 | 72 | 39 | 0.0 | 0.0 | 0.00 | 1.02 | 1.02 | 94 | 1005.8 |
| 20260905235913 | 72 | 39 | 0.0 | 0.0 | 0.00 | 1.02 | 1.02 | 94 | 1006.0 |
| 20260905235407 | 72 | 39 | 0.0 | 0.0 | 0.00 | 1.02 | 1.02 | 94 | 1006.0 |
| 20260905234902 | 72 | 39 | 0.0 | 0.9 | 0.00 | 1.02 | 1.02 | 94 | 1006.1 |
| 20260905234357 | 72 | 22 | 1.7 | 1.7 | 0.00 | 1.02 | 1.02 | 94 | 1005.9 |
| 20260905233852 | 73 | 33 | 0.0 | 0.0 | 0.00 | 1.02 | 1.02 | 93 | 1005.8 |
| 20260905233347 | 73 | 43 | 0.0 | 1.7 | 0.00 | 1.02 | 1.02 | 93 | 1005.6 |
| 20260905232846 | 72 | 48 | 0.9 | 0.9 | 0.00 | 1.02 | 1.02 | 93 | 1005.8 |
| 20260905232343 | 72 | 42 | 0.0 | 0.0 | 0.00 | 1.02 | 1.02 | 93 | 1005.5 |
| 20260905231838 | 73 | 41 | 0.0 | 0.9 | 0.00 | 1.02 | 1.02 | 93 | 1005.8 |
| 20260905231338 | 73 | 39 | 0.0 | 0.9 | 0.00 | 1.02 | 1.02 | 93 | 1005.7 |
| 20260905230836 | 73 | 5 | 1.7 | 2.6 | 0.00 | 1.02 | 1.02 | 92 | 1005.8 |
| 20260905230333 | 73 | 332 | 1.7 | 2.6 | 0.00 | 1.02 | 1.02 | 92 | 1005.5 |
| 20260905225832 | 72 | 331 | 2.6 | 2.6 | 0.00 | 1.02 | 1.02 | 93 | 1005.3 |
| 20260905225328 | 73 | 28 | 0.0 | 0.9 | 0.00 | 1.02 | 1.02 | 93 | 1005.2 |
| 20260905224827 | 72 | 350 | 1.7 | 2.6 | 0.00 | 1.02 | 1.02 | 93 | 1005.0 |
| 20260905224323 | 73 | 331 | 2.6 | 5.2 | 0.00 | 1.02 | 1.02 | 93 | 1005.2 |
| 20260905223818 | 73 | 316 | 5.2 | 7.0 | 0.00 | 1.02 | 1.02 | 94 | 1005.3 |
| 20260905223316 | 73 | 4 | 2.6 | 2.6 | 0.00 | 1.02 | 1.02 | 95 | 1005.0 |
| 20260905222811 | 73 | 28 | 0.0 | 0.9 | 0.00 | 1.02 | 1.02 | 93 | 1004.7 |
| 20260905222309 | 73 | 29 | 0.0 | 0.9 | 0.00 | 1.02 | 1.02 | 93 | 1004.6 |
| 20260905221806 | 73 | 332 | 2.6 | 2.6 | 0.00 | 1.02 | 1.02 | 92 | 1005.1 |
| 20260905221302 | 72 | 340 | 2.6 | 2.6 | 0.05 | 1.02 | 1.02 | 92 | 1005.4 |
| 20260905220758 | 72 | 41 | 0.0 | 0.9 | 0.05 | 1.02 | 1.02 | 92 | 1005.4 |
| 20260905220254 | 72 | 38 | 0.0 | 0.0 | 0.00 | 1.01 | 1.01 | 92 | 1005.1 |
| 20260905215753 | 72 | 46 | 0.9 | 0.9 | 0.00 | 1.01 | 1.01 | 91 | 1005.1 |
| 20260905215249 | 72 | 46 | 0.9 | 0.9 | 0.07 | 1.01 | 1.01 | 91 | 1005.5 |
| 20260905214744 | 72 | 30 | 0.9 | 0.9 | 0.14 | 1.01 | 1.01 | 90 | 1005.4 |
| 20260905214240 | 73 | 60 | 0.9 | 1.7 | 0.28 | 0.99 | 0.99 | 90 | 1005.4 |
| 20260905213735 | 73 | 47 | 0.9 | 1.7 | 0.59 | 0.98 | 0.98 | 90 | 1005.9 |
| 20260905213231 | 73 | 286 | 2.6 | 4.3 | 0.31 | 0.92 | 0.92 | 89 | 1006.0 |
| 20260905212726 | 73 | 351 | 4.3 | 5.2 | 0.00 | 0.87 | 0.87 | 89 | 1006.7 |
| 20260905212225 | 72 | 91 | 0.9 | 1.7 | 2.60 | 0.86 | 0.86 | 88 | 1007.1 |
| 20260905211725 | 75 | 101 | 5.2 | 6.1 | 2.15 | 0.71 | 0.71 | 88 | 1007.6 |
| 20260905211221 | 77 | 82 | 3.5 | 5.2 | 2.15 | 0.36 | 0.36 | 85 | 1006.5 |
| 20260905210717 | 82 | 76 | 2.6 | 7.0 | 0.59 | 0.10 | 0.10 | 79 | 1006.0 |
| 20260905210212 | 89 | 79 | 2.6 | 8.7 | 0.00 | 0.00 | 0.00 | 61 | 1005.1 |
| 20260905205710 | 93 | 40 | 0.9 | 2.6 | 0.00 | 0.00 | 0.00 | 54 | 1004.4 |
| 20260905205204 | 95 | 26 | 0.0 | 0.9 | 0.00 | 0.00 | 0.00 | 54 | 1003.9 |
| 20260905204659 | 95 | 328 | 2.6 | 2.6 | 0.00 | 0.00 | 0.00 | 54 | 1003.9 |
| 20260905204154 | 95 | 29 | 0.0 | 0.9 | 0.00 | 0.00 | 0.00 | 55 | 1003.5 |
| 20260905203648 | 95 | 17 | 0.9 | 1.7 | 0.00 | 0.00 | 0.00 | 56 | 1003.3 |
| 20260905203144 | 97 | 26 | 0.9 | 2.6 | 0.00 | 0.00 | 0.00 | 53 | 1003.3 |
| 20260905202639 | 96 | 51 | 0.0 | 0.9 | 0.00 | 0.00 | 0.00 | 52 | 1003.3 |
| 20260905202135 | 96 | 78 | 0.9 | 0.9 | 0.00 | 0.00 | 0.00 | 51 | 1003.4 |
| 20260905201630 | 97 | 18 | 1.7 | 2.6 | 0.00 | 0.00 | 0.00 | 51 | 1003.8 |
| 20260905201130 | 96 | 12 | 1.7 | 1.7 | 0.00 | 0.00 | 0.00 | 52 | 1004.0 |
| 20260905200626 | 97 | 27 | 0.9 | 4.3 | 0.00 | 0.00 | 0.00 | 51 | 1004.2 |
| 20260905200121 | 97 | 50 | 0.0 | 1.7 | 0.00 | 0.00 | 0.00 | 51 | 1004.1 |
| 20260905195619 | 98 | 46 | 0.0 | 0.0 | 0.00 | 0.00 | 0.00 | 50 | 1004.1 |
| 20260905195115 | 97 | 33 | 0.0 | 0.9 | 0.00 | 0.00 | 0.00 | 50 | 1004.2 |
| 20260905194614 | 97 | 51 | 0.0 | 1.7 | 0.00 | 0.00 | 0.00 | 51 | 1004.1 |
| 20260905194114 | 96 | 38 | 0.0 | 4.3 | 0.00 | 0.00 | 0.00 | 51 | 1004.1 |
| 20260905193609 | 97 | 7 | 2.6 | 2.6 | 0.00 | 0.00 | 0.00 | 51 | 1004.2 |
| 20260905193104 | 96 | 14 | 1.7 | 1.7 | 0.00 | 0.00 | 0.00 | 53 | 1004.4 |
| 20260905192559 | 97 | 355 | 2.6 | 6.1 | 0.00 | 0.00 | 0.00 | 53 | 1004.2 |
| 20260905192055 | 98 | 10 | 1.7 | 2.6 | 0.00 | 0.00 | 0.00 | 53 | 1004.4 |
| 20260905191554 | 98 | 15 | 1.7 | 1.7 | 0.00 | 0.00 | 0.00 | 52 | 1004.4 |
| 20260905191048 | 97 | 43 | 0.0 | 2.6 | 0.00 | 0.00 | 0.00 | 53 | 1004.4 |
| 20260905190546 | 96 | 1 | 0.9 | 1.7 | 0.00 | 0.00 | 0.00 | 54 | 1004.6 |
| 20260905190045 | 96 | 0 | 0.9 | 4.3 | 0.00 | 0.00 | 0.00 | 54 | 1004.7 |
| 20260905185545 | 97 | 55 | 0.9 | 5.2 | 0.00 | 0.00 | 0.00 | 56 | 1004.7 |
| 20260905185044 | 97 | 42 | 0.0 | 1.7 | 0.00 | 0.00 | 0.00 | 54 | 1004.8 |
| 20260905184539 | 95 | 36 | 0.0 | 1.7 | 0.00 | 0.00 | 0.00 | 55 | 1005.1 |
| 20260905184038 | 95 | 10 | 1.7 | 2.6 | 0.00 | 0.00 | 0.00 | 55 | 1004.9 |
| 20260905183537 | 95 | 30 | 0.9 | 1.7 | 0.00 | 0.00 | 0.00 | 56 | 1004.9 |
| 20260905183033 | 95 | 24 | 1.7 | 1.7 | 0.00 | 0.00 | 0.00 | 58 | 1005.3 |
| 20260905182527 | 94 | 21 | 0.9 | 1.7 | 0.00 | 0.00 | 0.00 | 57 | 1005.4 |
| 20260905182027 | 95 | 8 | 0.9 | 1.7 | 0.00 | 0.00 | 0.00 | 57 | 1005.4 |
| 20260905181522 | 95 | 49 | 0.9 | 2.6 | 0.00 | 0.00 | 0.00 | 57 | 1005.6 |
| 20260905181021 | 96 | 27 | 0.9 | 2.6 | 0.00 | 0.00 | 0.00 | 55 | 1005.7 |
| 20260905180516 | 96 | 31 | 1.7 | 1.7 | 0.00 | 0.00 | 0.00 | 56 | 1005.8 |
| 20260905180011 | 95 | 45 | 0.0 | 0.9 | 0.00 | 0.00 | 0.00 | 58 | 1005.9 |
| 20260905175510 | 94 | 43 | 0.0 | 1.7 | 0.00 | 0.00 | 0.00 | 60 | 1005.7 |
| 20260905175006 | 94 | 73 | 1.7 | 2.6 | 0.00 | 0.00 | 0.00 | 59 | 1005.8 |
| 20260905174501 | 94 | 59 | 0.9 | 2.6 | 0.00 | 0.00 | 0.00 | 60 | 1006.0 |
| 20260905173957 | 94 | 47 | 0.9 | 2.6 | 0.00 | 0.00 | 0.00 | 61 | 1006.0 |
| 20260905173453 | 93 | 65 | 2.6 | 5.2 | 0.00 | 0.00 | 0.00 | 60 | 1006.2 |
| 20260905172948 | 93 | 54 | 0.9 | 2.6 | 0.00 | 0.00 | 0.00 | 61 | 1006.4 |
| 20260905172446 | 93 | 29 | 0.0 | 0.9 | 0.00 | 0.00 | 0.00 | 61 | 1006.3 |
| 20260905171942 | 93 | 25 | 0.0 | 0.9 | 0.00 | 0.00 | 0.00 | 59 | 1006.6 |
| 20260905171439 | 92 | 26 | 0.0 | 0.9 | 0.00 | 0.00 | 0.00 | 60 | 1006.5 |
| 20260905170935 | 92 | 15 | 0.9 | 1.7 | 0.00 | 0.00 | 0.00 | 61 | 1006.3 |
| 20260905170431 | 92 | 20 | 0.0 | 1.7 | 0.00 | 0.00 | 0.00 | 60 | 1006.7 |
| 20260905165930 | 92 | 21 | 0.9 | 1.7 | 0.00 | 0.00 | 0.00 | 61 | 1006.7 |
| 20260905165425 | 91 | 28 | 0.0 | 1.7 | 0.00 | 0.00 | 0.00 | 59 | 1007.0 |
| 20260905164920 | 91 | 31 | 0.0 | 0.0 | 0.00 | 0.00 | 0.00 | 61 | 1006.9 |
| 20260905164414 | 91 | 20 | 0.0 | 0.9 | 0.00 | 0.00 | 0.00 | 62 | 1007.2 |
| 20260905163909 | 91 | 19 | 0.9 | 1.7 | 0.00 | 0.00 | 0.00 | 63 | 1007.2 |
| 20260905163406 | 90 | 24 | 0.9 | 1.7 | 0.00 | 0.00 | 0.00 | 63 | 1007.6 |
| 20260905162902 | 90 | 16 | 1.7 | 2.6 | 0.00 | 0.00 | 0.00 | 64 | 1007.2 |
| 20260905162356 | 90 | 25 | 0.9 | 2.6 | 0.00 | 0.00 | 0.00 | 65 | 1007.2 |
| 20260905161851 | 90 | 27 | 0.0 | 2.6 | 0.00 | 0.00 | 0.00 | 67 | 1007.5 |
| 20260905161350 | 89 | 30 | 0.0 | 0.9 | 0.00 | 0.00 | 0.00 | 67 | 1007.4 |
| 20260905160848 | 89 | 24 | 0.9 | 0.9 | 0.00 | 0.00 | 0.00 | 67 | 1007.5 |
| 20260905160343 | 89 | 21 | 0.9 | 2.6 | 0.00 | 0.00 | 0.00 | 66 | 1007.5 |
| 20260905155837 | 88 | 312 | 2.6 | 4.3 | 0.00 | 0.00 | 0.00 | 69 | 1007.5 |
| 20260905155331 | 88 | 359 | 1.7 | 4.3 | 0.00 | 0.00 | 0.00 | 70 | 1007.4 |
| 20260905154830 | 88 | 30 | 0.9 | 1.7 | 0.00 | 0.00 | 0.00 | 70 | 1007.6 |
| 20260905154326 | 87 | 9 | 2.6 | 4.3 | 0.00 | 0.00 | 0.00 | 70 | 1007.7 |
| 20260905153821 | 87 | 343 | 2.6 | 4.3 | 0.00 | 0.00 | 0.00 | 71 | 1007.7 |
| 20260905153318 | 87 | 284 | 2.6 | 4.3 | 0.00 | 0.00 | 0.00 | 72 | 1007.6 |
| 20260905152817 | 87 | 358 | 2.6 | 5.2 | 0.00 | 0.00 | 0.00 | 70 | 1007.9 |
| 20260905152316 | 87 | 351 | 1.7 | 2.6 | 0.00 | 0.00 | 0.00 | 71 | 1007.9 |
| 20260905151812 | 86 | 0 | 2.6 | 2.6 | 0.00 | 0.00 | 0.00 | 72 | 1008.0 |
| 20260905151307 | 86 | 315 | 2.6 | 5.2 | 0.00 | 0.00 | 0.00 | 72 | 1008.0 |
| 20260905150802 | 86 | 0 | 1.7 | 2.6 | 0.00 | 0.00 | 0.00 | 74 | 1008.0 |
| 20260905150302 | 86 | 326 | 3.5 | 5.2 | 0.00 | 0.00 | 0.00 | 73 | 1008.2 |
| 20260905145759 | 86 | 317 | 4.3 | 5.2 | 0.00 | 0.00 | 0.00 | 74 | 1008.1 |
| 20260905145253 | 85 | 314 | 1.7 | 2.6 | 0.00 | 0.00 | 0.00 | 75 | 1008.3 |
| 20260905144752 | 85 | 329 | 3.5 | 5.2 | 0.00 | 0.00 | 0.00 | 74 | 1008.3 |
| 20260905144248 | 85 | 342 | 2.6 | 4.3 | 0.00 | 0.00 | 0.00 | 74 | 1007.9 |
| 20260905143746 | 84 | 353 | 2.6 | 2.6 | 0.00 | 0.00 | 0.00 | 76 | 1008.2 |
| 20260905143241 | 84 | 8 | 1.7 | 2.6 | 0.00 | 0.00 | 0.00 | 77 | 1008.2 |
| 20260905142739 | 84 | 352 | 1.7 | 4.3 | 0.00 | 0.00 | 0.00 | 78 | 1008.3 |
| 20260905142234 | 84 | 308 | 4.3 | 6.1 | 0.00 | 0.00 | 0.00 | 78 | 1008.4 |
| 20260905141730 | 83 | 319 | 4.3 | 5.2 | 0.00 | 0.00 | 0.00 | 79 | 1008.3 |
| 20260905141226 | 83 | 307 | 4.3 | 5.2 | 0.00 | 0.00 | 0.00 | 79 | 1008.5 |
| 20260905140721 | 83 | 355 | 3.5 | 4.3 | 0.00 | 0.00 | 0.00 | 80 | 1008.2 |
| 20260905140220 | 82 | 308 | 4.3 | 6.1 | 0.00 | 0.00 | 0.00 | 81 | 1008.3 |
| 20260905135715 | 82 | 315 | 3.5 | 4.3 | 0.00 | 0.00 | 0.00 | 82 | 1008.1 |
| 20260905135211 | 82 | 334 | 3.5 | 4.3 | 0.00 | 0.00 | 0.00 | 82 | 1008.3 |
| 20260905134710 | 82 | 320 | 2.6 | 4.3 | 0.00 | 0.00 | 0.00 | 83 | 1008.1 |
| 20260905134210 | 81 | 349 | 1.7 | 2.6 | 0.00 | 0.00 | 0.00 | 84 | 1008.2 |
| 20260905133705 | 80 | 314 | 3.5 | 5.2 | 0.00 | 0.00 | 0.00 | 84 | 1008.4 |
| 20260905133200 | 80 | 27 | 0.9 | 2.6 | 0.00 | 0.00 | 0.00 | 84 | 1008.5 |
| 20260905132659 | 80 | 30 | 2.6 | 2.6 | 0.00 | 0.00 | 0.00 | 85 | 1008.6 |
| 20260905132154 | 79 | 11 | 0.9 | 1.7 | 0.00 | 0.00 | 0.00 | 86 | 1008.8 |
| 20260905131649 | 79 | 6 | 0.9 | 2.6 | 0.00 | 0.00 | 0.00 | 86 | 1008.7 |
| 20260905131150 | 78 | 21 | 2.6 | 2.6 | 0.00 | 0.00 | 0.00 | 87 | 1008.7 |
| 20260905130644 | 78 | 356 | 2.6 | 4.3 | 0.00 | 0.00 | 0.00 | 87 | 1008.6 |
| 20260905130144 | 77 | 308 | 3.5 | 4.3 | 0.00 | 0.00 | 0.00 | 88 | 1008.8 |
| 20260905125638 | 77 | 8 | 1.7 | 2.6 | 0.00 | 0.00 | 0.00 | 89 | 1008.6 |
| 20260905125134 | 77 | 352 | 2.6 | 2.6 | 0.00 | 0.00 | 0.00 | 90 | 1008.7 |
| 20260905124630 | 76 | 21 | 2.6 | 4.3 | 0.00 | 0.00 | 0.00 | 90 | 1008.7 |
| 20260905124126 | 76 | 321 | 2.6 | 4.3 | 0.00 | 0.00 | 0.00 | 91 | 1008.6 |
| 20260905123621 | 76 | 30 | 1.7 | 2.6 | 0.00 | 0.00 | 0.00 | 91 | 1008.6 |
| 20260905123118 | 76 | 350 | 1.7 | 2.6 | 0.00 | 0.00 | 0.00 | 91 | 1008.5 |
| 20260905122613 | 76 | 5 | 2.6 | 4.3 | 0.00 | 0.00 | 0.00 | 91 | 1008.6 |
| 20260905122113 | 76 | 348 | 1.7 | 2.6 | 0.00 | 0.00 | 0.00 | 91 | 1008.5 |
| 20260905121607 | 76 | 358 | 2.6 | 2.6 | 0.00 | 0.00 | 0.00 | 92 | 1008.5 |
| 20260905121103 | 75 | 340 | 2.6 | 4.3 | 0.00 | 0.00 | 0.00 | 91 | 1008.4 |
| 20260905120602 | 75 | 39 | 1.7 | 1.7 | 0.00 | 0.00 | 0.00 | 92 | 1008.2 |
| 20260905120057 | 75 | 344 | 2.6 | 2.6 | 0.00 | 0.00 | 0.00 | 92 | 1008.3 |
| 20260905115556 | 75 | 9 | 1.7 | 2.6 | 0.00 | 0.00 | 0.00 | 92 | 1008.5 |
| 20260905115051 | 75 | 0 | 2.6 | 2.6 | 0.00 | 0.00 | 0.00 | 92 | 1008.3 |
| 20260905114550 | 75 | 355 | 1.7 | 1.7 | 0.00 | 0.00 | 0.00 | 92 | 1008.2 |
| 20260905114049 | 75 | 359 | 0.9 | 2.6 | 0.00 | 0.00 | 0.00 | 92 | 1008.3 |
| 20260905113544 | 75 | 350 | 1.7 | 2.6 | 0.00 | 0.00 | 0.00 | 92 | 1008.2 |
| 20260905113039 | 75 | 356 | 2.6 | 2.6 | 0.00 | 0.00 | 0.00 | 92 | 1008.3 |
| 20260905112535 | 75 | 27 | 0.9 | 1.7 | 0.00 | 0.00 | 0.00 | 92 | 1008.2 |
| 20260905112030 | 75 | 10 | 1.7 | 2.6 | 0.00 | 0.00 | 0.00 | 92 | 1008.2 |
| 20260905111525 | 75 | 348 | 2.6 | 2.6 | 0.00 | 0.00 | 0.00 | 92 | 1008.1 |
| 20260905111024 | 75 | 30 | 0.0 | 0.9 | 0.00 | 0.00 | 0.00 | 92 | 1008.0 |
| 20260905110523 | 75 | 32 | 0.0 | 1.7 | 0.00 | 0.00 | 0.00 | 92 | 1007.8 |
| 20260905110019 | 75 | 39 | 0.0 | 0.9 | 0.00 | 0.00 | 0.00 | 92 | 1007.9 |
| 20260905105513 | 75 | 3 | 1.7 | 1.7 | 0.00 | 0.00 | 0.00 | 92 | 1007.9 |
| 20260905105013 | 75 | 315 | 1.7 | 2.6 | 0.00 | 0.00 | 0.00 | 92 | 1007.8 |
| 20260905104509 | 75 | 34 | 0.0 | 0.9 | 0.00 | 0.00 | 0.00 | 91 | 1007.8 |
| 20260905104008 | 75 | 33 | 0.0 | 0.0 | 0.00 | 0.00 | 0.00 | 91 | 1007.7 |
| 20260905103503 | 75 | 34 | 0.0 | 0.9 | 0.00 | 0.00 | 0.00 | 91 | 1007.7 |
| 20260905102959 | 75 | 47 | 0.9 | 0.9 | 0.00 | 0.00 | 0.00 | 91 | 1007.5 |
| 20260905102455 | 75 | 33 | 0.0 | 0.9 | 0.00 | 0.00 | 0.00 | 91 | 1007.5 |
| 20260905101950 | 75 | 47 | 0.0 | 0.0 | 0.00 | 0.00 | 0.00 | 90 | 1007.7 |
| 20260905101449 | 75 | 47 | 0.0 | 0.0 | 0.00 | 0.00 | 0.00 | 90 | 1007.5 |
| 20260905100948 | 75 | 46 | 0.0 | 0.9 | 0.00 | 0.00 | 0.00 | 90 | 1007.5 |
| 20260905100444 | 75 | 45 | 0.0 | 0.0 | 0.00 | 0.00 | 0.00 | 90 | 1007.6 |
| 20260905095943 | 75 | 44 | 0.0 | 0.0 | 0.00 | 0.00 | 0.00 | 90 | 1007.4 |
| 20260905095438 | 75 | 44 | 0.0 | 0.0 | 0.00 | 0.00 | 0.00 | 90 | 1007.5 |
| 20260905094933 | 75 | 43 | 0.0 | 0.0 | 0.00 | 0.00 | 0.00 | 90 | 1007.5 |
| 20260905094429 | 75 | 35 | 0.0 | 0.0 | 0.00 | 0.00 | 0.00 | 90 | 1007.3 |
| 20260905093927 | 75 | 41 | 0.0 | 0.9 | 0.00 | 0.00 | 0.00 | 90 | 1007.5 |
| 20260905093423 | 76 | 36 | 0.0 | 0.9 | 0.00 | 0.00 | 0.00 | 90 | 1007.4 |
| 20260905092918 | 76 | 35 | 0.9 | 0.9 | 0.00 | 0.00 | 0.00 | 90 | 1007.5 |
| 20260905092413 | 76 | 5 | 1.7 | 1.7 | 0.00 | 0.00 | 0.00 | 90 | 1007.7 |
| 20260905091908 | 76 | 35 | 0.9 | 1.7 | 0.00 | 0.00 | 0.00 | 90 | 1007.6 |
| 20260905091403 | 76 | 29 | 0.9 | 0.9 | 0.00 | 0.00 | 0.00 | 90 | 1007.5 |
| 20260905090902 | 76 | 46 | 0.0 | 0.9 | 0.00 | 0.00 | 0.00 | 89 | 1007.7 |
| 20260905090358 | 76 | 44 | 0.0 | 0.9 | 0.00 | 0.00 | 0.00 | 89 | 1007.6 |
| 20260905085856 | 76 | 46 | 0.9 | 0.9 | 0.00 | 0.00 | 0.00 | 89 | 1007.7 |
| 20260905085351 | 76 | 45 | 0.0 | 0.0 | 0.00 | 0.00 | 0.00 | 89 | 1007.6 |
| 20260905084848 | 76 | 44 | 0.0 | 0.0 | 0.00 | 0.00 | 0.00 | 89 | 1007.8 |
| 20260905084346 | 76 | 43 | 0.0 | 0.0 | 0.00 | 0.00 | 0.00 | 89 | 1007.7 |
| 20260905083841 | 76 | 43 | 0.0 | 0.0 | 0.00 | 0.00 | 0.00 | 89 | 1007.7 |
| 20260905083337 | 77 | 37 | 0.0 | 0.0 | 0.00 | 0.00 | 0.00 | 89 | 1007.7 |